World > North America > United States > Pennsylvania   City of Philadelphia, PA

Philadelphia, Pennsylvania Regional Weather

Lat: 40.01N, Lon: 75.13W
Wx Zone: PAZ071Web Search

Our weather pages are very print friendly and they make great conversation starters.

Feedback
Philadelphia Weather Map
UTC Time: 3/5/2021, 10:16
Your Time:

Philadelphia, PA Regional Weather

Expires:202103051000;;498804
ASUS41 KOKX 050913
RWROKX

Regional Weather Roundup
National Weather Service New York NY
400 AM EST FRI MAR 05 2021

Note: "FAIR" indicates few or no clouds below 12,000 feet with no
significant weather and/or obstructions to visibility.


PAZ047>061-062-071-051000-
Eastern Pennsylvania
  
CITY           SKY/WX    TMP DP  RH WIND       PRES   REMARKS
Philadelphia   CLEAR     27   5  39 NW23G32   29.96R WCI  12          
Allentown      CLEAR     21   6  52 NW14G23   29.96S WCI   8          
Scranton       PTCLDY    19   5  54 NW8G18    29.96R WCI   9          
$$


SKY/WX - Weather  TMP - Temperature  DP - Dew Point  RH - Relative Humidity
WIND - Wind Direction/Speed PRES - Barometric Pressure VSB - Visibility
WCI - Wind Chill Index E13G22 Wind - East Wind 13 mph/Gusts of 22 mph